Terminal Aerodrome Forecast
Issued by NWS Buffalo, NY

Home | Current Version | Previous Version | Text Only | Print | Product List | Glossary On
Versions: 1 2 3 4 5 6 7 8 9 10 11 12 13 14 15 16 17 18 19 20 21 22 23 24 25 26 27 28
000
FTUS41 KBUF 290900 AAA
TAFART
TAF AMD
KART 290930Z 2909/3006 28005KT P6SM OVC070
     FM291500 27010KT P6SM SCT250
     FM292300 23007KT P6SM SCT100
     FM300500 17007KT P6SM BKN090=

USA.gov is the U.S. government's official web portal to all federal, state and local government web resources and services.